Location: Hopewell Observatory
(38.8698°N, 77.6988°W)
Time: 10:51:03
(UTC-04:00)

COSMOS 2428 - Pass Details

Date: 26 May 2018
Orbit: 843 x 858 km, 71.0° (Epoch: 22 September)

Event Time Altitude Azimuth Distance (km) Brightness Sun altitude
Rises 23:23:31 0° 333° (NNW) 3,407 7.2 -25.1°
Reaches altitude 10° 23:25:59 10° 330° (NNW) 2,468 6.2 -25.3°
Maximum altitude 23:31:32 60° 252° (WSW) 965 2.9 -25.8°
Enters shadow 23:32:16 55° 219° (SW) 1,010 2.9 -25.8°
